Simultaneous Nadir Overpasses (SNOs) Predictions

Prediction of SNOs between AQUA and METOP-A Satellite Orbit:

Table of predicted SNOs for the next 14.0 days since TLE Epoch: 10/31/2015
Index Date (AQUA) Time (AQUA) Lat,Lon (AQUA) SZA (AQUA ) Date (METOP-A) Time (METOP-A) Lat,Lon (METOP-A) SZA (METOP-A ) Distance(km) Time Diff (sec)
1 11/02/2015 04:11:04 -73.86, -68.62 91.60 11/02/2015 04:09:51 -73.86, -68.74 91.60 3.60 73
2 11/02/2015 05:00:33 73.92, 98.86 88.48 11/02/2015 05:00:29 73.94, 98.79 88.50 2.92 4
3 11/02/2015 05:50:00 -74.01, -93.68 91.43 11/02/2015 05:51:09 -74.03, -93.67 91.41 2.40 69
4 11/04/2015 23:45:19 -73.91, -2.31 90.67 11/04/2015 23:44:07 -73.89, -2.25 90.69 3.38 72
5 11/05/2015 00:34:47 73.93, 165.28 89.37 11/05/2015 00:34:45 73.96, 165.28 89.40 3.71 2
6 11/05/2015 01:24:14 -74.01, -27.25 90.55 11/05/2015 01:25:26 -74.01, -27.29 90.55 1.18 72
7 11/07/2015 19:19:33 -73.89, 64.18 89.85 11/07/2015 19:18:24 -73.91, 64.23 89.82 2.65 69
8 11/07/2015 20:09:02 73.97,-128.36 90.25 11/07/2015 20:09:02 73.98,-128.25 90.26 3.52 0
9 11/07/2015 20:58:29 -74.04, 39.12 89.67 11/07/2015 20:59:42 -74.08, 39.31 89.64 7.21 73
10 11/10/2015 14:53:47 -73.90, 130.61 89.03 11/10/2015 14:52:42 -73.87, 130.58 89.05 2.52 65
11 11/10/2015 15:43:15 73.93, -61.82 91.01 11/10/2015 15:43:20 73.94, -61.92 91.03 3.65 5
12 11/10/2015 16:32:46 -74.20, 105.19 88.70 11/10/2015 16:33:57 -74.19, 106.02 88.72 25.22 71
13 11/13/2015 10:27:59 -73.88,-162.90 88.28 11/13/2015 10:26:58 -73.88,-162.97 88.27 2.23 61
14 11/13/2015 11:17:28 73.96, 4.54 91.82 11/13/2015 11:17:36 73.95, 4.52 91.81 1.88 8




NCC Satellite Simultaneous Nadir Overpasses (SNOs) Prediction Service
